Location: Muenchen
(48.1800°N, 11.5800°E)
Time: 01:25:40
(UTC+02:00)

ISS - All Passes

Search period start: 23 May 2018 00:00
Search period end: 02 June 2018 00:00
Orbit: 402 x 407 km, 51.6° (Epoch: 23 May)

Date Brightness Start Highest point End Pass type
(mag) Time Alt. Az. Time Alt. Az. Time Alt. Az.
23 May - 00:37:48 10° WNW 00:40:57 43° N 00:44:06 10° ENE visible
23 May - 02:14:28 10° WNW 02:17:44 69° NNE 02:20:59 10° ESE visible
23 May - 03:51:10 10° W 03:54:02 28° SW 03:56:53 10° SSE visible
23 May - 20:34:34 10° SSE 20:36:07 13° SE 20:37:39 10° ESE daylight
23 May - 22:08:50 10° SW 22:12:05 66° SSE 22:15:20 10° ENE visible
23 May - 23:45:30 10° W 23:48:41 46° N 23:51:52 10° ENE visible
24 May - 01:22:17 10° WNW 01:25:30 53° NNE 01:28:43 10° E visible
24 May - 02:58:50 10° WNW 03:02:00 46° SSW 03:05:08 10° SE visible
24 May - 21:16:53 10° SW 21:19:58 41° SSE 21:23:05 10° ENE daylight
24 May - 22:53:11 10° W 22:56:25 56° NNW 22:59:40 10° ENE visible
25 May - 00:30:04 10° WNW 00:33:15 45° N 00:36:24 10° E visible
25 May - 02:06:36 10° WNW 02:09:52 73° SSW 02:13:08 10° ESE visible
25 May - 03:44:02 10° WSW 03:45:53 14° SW 03:47:46 10° S night (unlit)
25 May - 20:25:10 10° SSW 20:27:55 25° SE 20:30:41 10° E daylight
25 May - 22:00:54 10° WSW 22:04:11 74° NNW 22:07:28 10° ENE visible
25 May - 23:37:47 10° WNW 23:40:56 43° N 23:44:05 10° ENE visible
26 May - 01:14:24 10° WNW 01:17:41 77° NNE 01:20:56 10° ESE visible
26 May - 02:51:14 10° W 02:53:55 24° SW 02:56:35 10° SSE visible
26 May - 19:33:54 10° S 19:35:56 15° SE 19:37:58 10° E daylight
26 May - 21:08:42 10° WSW 21:11:59 77° SSE 21:15:15 10° ENE daylight
26 May - 22:45:27 10° W 22:48:37 45° N 22:51:48 10° ENE visible
27 May - 00:22:11 10° WNW 00:25:26 57° NNE 00:28:39 10° E visible
27 May - 01:58:47 10° WNW 02:01:51 38° SSW 02:04:55 10° SE visible
27 May - 20:16:38 10° SW 20:19:49 48° SSE 20:23:00 10° ENE daylight
27 May - 21:53:06 10° W 21:56:19 52° N 21:59:32 10° ENE visible
27 May - 23:29:57 10° WNW 23:33:08 47° N 23:36:19 10° E visible
28 May - 01:06:29 10° WNW 01:09:43 62° SSW 01:12:57 10° SE visible
28 May - 02:44:21 10° WSW 02:45:39 12° SW 02:46:57 10° SSW night (unlit)
28 May - 19:24:47 10° SSW 19:27:42 30° SE 19:30:37 10° E daylight
28 May - 21:00:46 10° W 21:04:01 66° NNW 21:07:17 10° ENE daylight
28 May - 22:37:39 10° WNW 22:40:48 43° N 22:43:57 10° ENE visible
29 May - 00:14:13 10° WNW 00:17:31 87° NNE 00:20:47 10° ESE visible
29 May - 01:51:12 10° W 01:53:40 20° SW 01:56:07 10° S visible
29 May - 18:33:17 10° S 18:35:38 18° SE 18:38:00 10° E daylight
29 May - 20:08:28 10° WSW 20:11:45 88° SSE 20:15:03 10° ENE daylight
29 May - 21:45:17 10° WNW 21:48:27 44° N 21:51:37 10° ENE visible
29 May - 23:21:58 10° WNW 23:25:15 63° NNE 23:28:30 10° E visible
30 May - 00:58:38 10° W 01:01:36 32° SW 01:04:33 10° SSE visible
30 May - 17:42:42 10° SSE 17:43:39 11° SE 17:44:35 10° ESE daylight
30 May - 19:16:19 10° SW 19:19:32 58° SSE 19:22:46 10° ENE daylight
30 May - 20:52:53 10° W 20:56:07 48° N 20:59:18 10° ENE daylight
30 May - 22:29:42 10° WNW 22:32:55 50° N 22:36:07 10° E visible
31 May - 00:06:15 10° WNW 00:09:27 52° SSW 00:12:38 10° SE visible
31 May - 18:24:20 10° SSW 18:27:22 35° SE 18:30:24 10° ENE daylight
31 May - 20:00:30 10° W 20:03:45 60° NNW 20:07:00 10° ENE daylight
31 May - 21:37:23 10° WNW 21:40:34 44° N 21:43:43 10° E visible
31 May - 23:13:56 10° WNW 23:17:13 82° SSW 23:20:29 10° ESE visible
01 Jun - 00:51:07 10° W 00:53:18 17° SW 00:55:27 10° S visible
01 Jun - 17:32:38 10° SSW 17:35:14 22° SE 17:37:51 10° E daylight
01 Jun - 19:08:09 10° WSW 19:11:26 81° NNW 19:14:44 10° ENE daylight
01 Jun - 20:45:01 10° WNW 20:48:10 43° N 20:51:19 10° ENE daylight
01 Jun - 22:21:39 10° WNW 22:24:56 70° NNE 22:28:11 10° ESE visible
